Temperature
17 17 17 17 17 17 17 17 17 17 17 17 17 17 17 17 17 17 17 17 17 17 17 17 17 17 16 16 16 16 16 16 16 16 16 16 16 16 16 16 15 15 15
17 17 17 17 17 17 17 17 17 17 17 17 17 17 17 17 16 16 16 17 17 17 16 16 16 16 16 16 16 16 16 16 16 16 16 16 16 16 16 16 15 15 15
17 17 17 17 17 17 17 17 17 17 17 17 17 17 17 17 16 16 16 16 16 17 17 16 16 16 16 16 16 16 16 16 16 16 16 16 16 16 16 16 15 15 15
17 17 17 17 17 17 17 17 17 17 17 17 17 17 17 17 16 16 16 16 16 16 16 16 16 16 16 16 16 16 16 16 16 16 16 16 16 16 15 15 15 15 15
17 17 17 17 17 17 17 17 17 17 17 17 17 17 17 17 16 16 16 16 16 16 16 16 16 16 16 16 16 16 16 16 16 16 16 16 15 15 15 15 15 15 15
17 17 17 17 17 17 17 17 17 17 17 17 17 17 17 17 17 17 16 17 16 16 16 16 16 16 16 16 16 16 16 16 16 16 15 15 15 15 15 15 15 15 15
17 17 17 17 17 17 17 17 17 16 17 17 17 17 17 17 17 17 17 17 17 16 16 16 16 16 16 16 16 16 16 16 16 15 15 15 15 15 15 15 15 15 15
17 17 17 17 17 17 16 16 16 17 17 17 17 17 18 18 17 17 17 17 17 17 16 16 16 16 16 16 16 16 16 16 16 15 15 15 15 15 15 15 15 15 15
17 17 17 17 17 17 17 16 16 16 17 17 17 17 18 19 19 18 17 17 17 17 17 17 16 16 16 16 16 16 16 16 16 16 15 15 15 15 15 15 15 15 15
17 17 17 17 17 17 17 16 16 16 16 17 17 17 17 18 18 19 18 18 17 17 17 17 17 16 16 16 16 16 16 16 16 16 15 15 15 15 15 15 15 15 15
17 17 17 17 17 17 16 16 16 16 16 17 17 17 17 17 17 18 18 18 18 17 17 17 17 17 16 16 16 16 16 16 16 16 15 15 15 15 15 15 15 15 15
17 17 17 17 17 17 16 17 16 16 17 16 17 17 17 17 17 18 18 18 18 18 17 17 17 17 17 16 16 16 16 16 16 16 16 15 15 15 15 15 15 15 15
17 17 17 17 17 17 17 17 17 16 16 16 16 16 17 17 17 17 18 18 18 18 17 17 17 17 17 16 16 16 16 16 16 16 16 16 15 15 15 15 15 15 15
17 17 17 17 17 17 16 17 16 16 16 16 16 16 16 16 17 17 17 18 18 18 18 18 17 17 17 16 16 16 16 16 16 16 16 16 16 15 15 15 15 15 15
17 17 17 17 17 17 17 17 16 16 16 16 16 16 16 16 16 16 17 17 17 18 18 18 17 17 17 16 16 16 16 16 16 16 16 16 16 15 15 15 15 15 15
17 17 16 16 16 17 17 17 16 16 16 16 16 16 16 16 16 16 16 16 16 17 17 18 17 17 16 16 16 16 16 16 16 16 16 16 16 15 15 15 15 15 15
17 17 16 16 16 16 16 16 16 16 16 16 16 16 16 16 16 16 16 16 16 16 16 17 17 16 16 16 16 16 15 15 16 16 16 16 16 15 15 15 15 15 15
16 16 16 16 16 16 16 16 16 16 16 16 16 16 15 15 15 16 16 16 16 16 16 16 16 16 16 15 15 16 15 16 15 16 16 16 16 16 16 15 15 15 15
16 16 16 16 16 16 16 16 16 16 16 16 16 15 15 15 15 15 15 15 15 15 15 15 16 16 15 15 15 15 15 15 15 15 15 16 16 16 15 15 15 15 15
16 16 16 16 16 16 16 16 16 16 16 16 15 15 15 15 15 15 15 15 15 15 15 15 15 15 15 15 15 15 15 15 15 15 15 15 15 15 15 15 15 15 15
16 16 16 16 16 16 16 16 16 16 15 15 15 15 15 15 15 15 15 15 15 15 15 15 15 15 15 15 15 15 15 15 15 15 15 15 15 14 14 14 14 14 15
16 16 16 16 16 16 16 16 16 15 15 15 15 15 15 15 15 15 15 15 14 14 14 14 14 15 14 14 14 14 14 14 14 15 14 14 15 14 14 14 14 14 14
16 16 16 16 15 16 16 16 16 15 15 15 15 15 15 15 15 15 15 14 14 14 14 14 14 14 14 14 14 14 13 13 14 14 14 14 14 14 14 14 14 13 13
15 16 15 15 15 15 15 15 15 15 15 15 15 15 15 14 14 14 14 14 14 14 14 13 13 13 13 13 13 13 13 13 13 13 13 13 13 13 14 13 13 13 13
15 15 15 15 15 15 15 15 15 15 15 15 15 14 14 14 14 14 14 13 13 13 13 13 13 13 13 13 13 12 12 13 13 13 13 12 12 13 13 13 12 12 12
15 15 15 14 14 15 15 15 15 14 14 14 14 14 14 14 14 13 13 13 12 12 12 12 12 12 12 12 12 12 12 12 12 12 12 11 11 11 12 12 12 11 11
Wind_Speed
6 7 6 5 6 6 7 5 5 5 5 5 4 5 4 5 5 5 10 10 8 7 7 7 7 7 7 7 7 7 6 6 6 7 6 6 6 6 6 6 6 6 6
7 7 7 6 5 5 5 5 5 5 4 4 4 4 4 5 5 4 7 10 9 7 7 7 7 7 7 7 6 6 6 6 7 7 6 6 6 6 6 6 6 6 6
8 7 6 6 6 6 5 5 5 5 4 4 4 4 4 4 5 4 5 6 9 10 8 7 7 7 7 7 7 7 7 7 7 7 7 7 7 7 7 6 7 7 7
9 8 6 6 6 7 6 5 4 4 4 3 3 3 4 4 5 5 5 5 5 7 10 9 8 8 8 7 8 8 8 8 8 8 8 8 8 8 8 8 8 8 8
10 9 6 6 7 6 6 5 5 4 4 4 4 4 4 4 4 5 4 5 5 4 6 11 10 8 8 8 8 8 8 8 8 8 8 9 9 9 9 9 9 10 10
11 9 7 7 8 6 6 4 4 3 3 4 4 4 4 4 4 5 5 6 6 6 6 6 9 10 11 9 8 8 8 8 9 9 9 9 10 10 11 11 10 10 11
11 9 7 8 8 7 6 7 5 6 5 4 4 4 4 5 5 5 5 5 6 6 5 5 6 5 9 13 11 10 9 9 9 9 10 10 10 11 11 11 11 11 11
12 11 9 8 8 7 7 7 6 5 5 5 4 4 4 5 6 7 6 6 6 6 7 8 6 6 6 7 10 12 11 10 10 10 10 10 10 11 11 11 11 11 11
13 12 11 10 8 9 8 8 8 8 6 6 5 4 4 3 4 6 7 6 6 6 6 6 8 8 8 7 7 13 13 11 10 10 10 10 10 11 11 11 11 11 11
14 14 13 12 10 9 8 9 9 8 7 6 6 5 5 3 3 3 6 7 8 8 7 6 7 8 9 9 7 6 11 12 12 11 11 11 11 11 11 11 10 11 11
14 14 14 12 11 10 10 9 8 9 9 9 7 6 6 5 7 6 4 4 6 7 7 7 7 7 8 9 8 9 12 12 13 13 12 12 11 11 11 11 11 10 10
12 14 14 13 12 11 10 10 9 11 10 9 8 7 7 6 6 6 6 6 5 5 6 6 7 7 8 9 10 7 11 13 14 14 14 14 13 13 12 12 12 11 11
12 13 13 12 11 11 11 10 10 10 10 10 9 8 8 7 6 6 6 6 5 5 5 6 7 7 8 8 8 9 12 14 15 15 15 15 15 14 14 13 13 13 12
12 12 13 13 13 12 12 11 10 10 9 10 11 9 7 8 7 7 7 6 6 6 6 6 5 6 7 8 6 8 10 14 15 16 15 15 15 15 15 15 15 15 14
10 12 13 14 13 13 12 11 10 10 9 10 10 9 9 7 7 7 7 7 7 7 6 5 5 5 6 7 5 8 9 10 13 15 15 16 16 16 16 17 17 17 17
11 11 13 14 13 13 13 12 10 10 10 9 8 8 8 7 6 7 7 7 7 8 7 5 5 4 3 5 6 8 9 8 11 14 14 15 16 16 17 17 18 18 18
12 13 13 13 13 13 13 12 12 11 11 10 9 9 9 9 7 7 7 7 7 8 8 7 5 4 4 7 5 7 9 9 10 15 15 15 16 16 17 18 18 18 19
13 13 13 14 14 14 13 13 13 12 12 11 11 10 10 9 9 8 7 8 8 7 8 9 7 6 6 6 6 7 8 9 10 10 14 14 16 17 17 18 18 19 19
12 12 13 13 13 13 13 13 12 12 12 11 11 10 10 9 9 8 8 8 7 7 7 8 8 6 6 6 6 7 8 7 10 9 12 15 16 17 17 18 18 19 19
11 12 12 12 12 12 12 12 12 11 11 10 10 10 10 10 9 9 8 8 7 7 7 8 8 7 6 6 6 7 7 7 8 9 8 9 12 16 18 18 19 18 18
10 10 10 10 10 9 10 10 11 11 10 10 9 9 9 8 7 6 7 7 7 7 7 7 7 7 7 6 6 7 8 7 7 7 7 8 9 10 12 17 19 17 17
8 8 8 9 9 7 6 7 7 8 8 8 8 7 7 8 7 7 5 4 5 7 7 7 7 7 7 7 6 7 7 8 8 6 7 9 8 9 9 10 8 11 14
6 6 6 6 6 4 6 6 6 5 6 6 6 6 5 5 6 7 7 7 6 6 6 7 8 8 8 7 7 9 8 9 9 7 7 9 8 8 9 9 5 8 10
5 4 4 4 3 3 5 6 6 5 4 3 3 3 4 3 4 4 5 5 5 5 5 6 6 7 7 7 7 8 9 9 10 8 7 9 9 9 9 9 7 8 10
5 4 3 3 3 3 4 5 5 4 3 3 2 1 1 2 1 2 4 4 3 3 2 2 3 4 4 5 6 6 7 7 8 7 5 7 8 8 8 8 7 8 10
6 5 5 4 4 4 5 4 3 3 3 3 3 3 4 3 3 2 2 2 3 3 2 2 2 4 4 4 4 5 6 7 7 6 4 4 7 7 8 6 5 5 7
Wind_Direction
161 152 153 159 164 153 161 165 156 143 144 148 146 136 133 124 126 132 131 148 157 160 162 162 164 163 163 164 166 166 164 163 161 159 159 160 161 163 163 164 165 166 164
161 160 164 170 167 166 158 162 155 162 166 152 152 143 154 143 138 145 140 153 166 173 178 180 178 178 178 178 181 183 184 182 179 180 181 183 186 187 187 186 184 185 184
167 173 172 178 173 162 158 173 161 171 176 172 164 157 159 163 153 153 153 160 167 178 187 192 194 193 192 193 196 198 197 197 193 195 198 199 202 204 204 203 200 200 203
177 184 183 184 170 178 179 172 186 182 177 178 171 177 163 164 171 171 174 177 179 173 179 189 200 203 206 207 207 206 206 205 203 206 209 211 212 212 213 215 216 215 216
186 194 191 178 182 188 188 194 171 193 182 185 181 178 188 178 174 188 182 184 184 194 179 170 189 202 209 214 213 213 212 211 213 215 218 220 221 221 222 223 225 226 228
192 199 193 185 198 193 191 197 172 188 196 200 206 175 192 185 191 185 200 192 189 199 202 182 189 196 204 214 220 221 220 218 220 223 226 229 229 227 228 230 231 233 235
193 202 203 185 204 202 200 196 193 186 199 197 203 196 194 203 199 197 211 211 197 202 205 205 218 204 193 202 211 217 222 223 225 228 232 235 235 232 233 234 235 237 240
199 203 210 202 201 204 202 205 204 209 203 199 217 212 207 200 206 211 206 216 219 209 213 211 212 219 237 204 191 203 217 224 227 229 231 234 236 235 235 236 237 239 242
203 210 206 214 205 212 205 206 205 210 215 208 222 233 231 225 198 194 213 220 218 222 226 219 217 215 225 230 208 198 207 218 224 228 230 231 232 234 234 235 237 240 242
204 207 211 212 213 216 210 210 209 213 216 221 214 235 259 295 252 212 205 210 215 223 234 234 226 217 222 228 223 215 203 215 222 227 230 231 231 230 232 234 238 240 240
205 208 211 210 212 218 214 219 213 218 218 226 224 220 225 229 247 260 240 219 213 220 220 226 234 233 225 229 227 219 200 215 223 228 230 231 230 230 230 232 235 238 238
205 208 210 209 212 217 213 214 216 216 226 229 234 231 228 228 233 240 246 241 237 226 219 228 234 233 234 233 229 197 204 219 227 230 231 232 231 231 232 234 237 240 241
206 205 209 209 213 216 216 213 213 219 217 220 227 232 238 243 247 249 258 258 254 240 220 230 229 232 234 232 226 203 218 221 227 231 232 232 233 234 234 235 238 241 243
210 203 207 211 214 214 214 212 216 215 215 218 225 229 237 239 241 246 253 260 257 252 232 237 230 227 234 237 226 210 228 217 226 230 232 234 236 238 238 239 240 241 244
209 205 210 212 212 212 212 209 216 215 213 217 221 217 229 235 236 243 245 250 258 264 256 228 233 227 227 237 223 236 242 215 220 228 232 235 238 240 242 243 243 244 246
208 208 213 214 212 210 208 208 211 211 212 215 222 223 225 235 234 237 240 243 249 258 269 266 236 237 236 252 215 236 246 217 222 227 232 236 239 242 243 244 245 246 247
205 207 211 214 212 211 208 208 213 208 213 213 213 216 221 235 233 235 235 238 242 246 256 263 256 240 236 261 248 248 250 247 239 219 227 236 241 244 245 246 247 247 248
206 207 210 210 212 212 210 210 213 212 214 214 215 218 224 224 226 238 239 239 244 249 254 260 261 247 235 244 249 256 259 253 258 220 217 231 239 243 246 248 249 249 250
208 207 207 209 210 210 211 213 215 214 214 218 217 217 221 224 225 228 233 240 243 243 246 257 258 258 254 251 251 252 258 263 266 248 220 226 235 241 245 247 248 249 251
204 203 204 207 210 210 210 212 215 215 215 217 216 217 217 220 224 227 228 234 242 248 244 252 258 257 252 249 251 258 260 249 256 265 258 247 235 234 240 242 244 247 250
198 198 198 202 207 210 211 210 213 213 212 214 216 217 219 221 230 233 239 235 235 242 247 250 257 259 257 255 255 259 265 270 261 259 265 262 250 246 239 234 234 241 246
189 190 193 197 201 208 188 195 213 214 212 214 215 215 217 213 211 210 235 255 263 253 257 261 262 264 267 265 266 269 271 270 270 259 262 267 266 267 264 261 228 223 237
174 177 182 188 192 182 155 177 200 216 213 215 216 217 225 223 209 216 207 211 235 251 258 264 271 275 277 276 276 270 267 273 278 284 279 275 274 272 271 269 230 230 240
161 158 160 161 164 148 135 154 164 195 207 206 206 211 217 229 223 223 225 226 232 238 240 242 256 270 281 291 281 274 278 273 267 265 267 274 279 279 282 279 236 230 242
139 134 131 131 133 115 115 144 160 170 169 170 173 178 203 216 66 189 214 223 234 250 229 215 244 266 307 327 309 285 280 278 277 278 271 269 282 287 283 276 263 224 235
131 121 102 93 95 90 83 107 158 165 157 143 106 76 58 56 53 96 189 214 234 261 282 260 236 252 265 273 265 276 286 283 284 287 309 292 289 294 288 283 289 288 267
Height
1571 1573 1575 1577 1579 1581 1582 1583 1584 1585 1586 1587 1589 1590 1591 1591 1592 1593 1592 1592 1593 1594 1594 1595 1596 1596 1597 1598 1598 1599 1600 1600 1601 1601 1602 1602 1603 1603 1603 1604 1604 1605 1605
1571 1573 1574 1577 1579 1581 1583 1583 1585 1586 1587 1588 1589 1590 1591 1592 1592 1593 1594 1593 1593 1594 1595 1595 1596 1596 1597 1598 1598 1599 1600 1600 1601 1601 1602 1602 1603 1603 1603 1604 1604 1605 1605
1570 1572 1575 1577 1579 1580 1581 1583 1584 1586 1587 1588 1589 1590 1591 1592 1593 1593 1594 1594 1594 1594 1595 1595 1596 1596 1597 1597 1598 1599 1599 1600 1600 1601 1601 1602 1602 1603 1603 1603 1604 1604 1604
1569 1571 1574 1577 1578 1580 1581 1583 1584 1586 1587 1588 1589 1590 1591 1591 1592 1593 1594 1594 1595 1596 1595 1595 1595 1596 1596 1597 1597 1598 1598 1599 1599 1600 1600 1601 1601 1602 1602 1602 1603 1603 1604
1568 1570 1573 1575 1576 1579 1581 1583 1584 1585 1587 1588 1589 1589 1591 1592 1592 1593 1594 1594 1594 1595 1595 1594 1594 1595 1595 1596 1596 1597 1597 1598 1598 1599 1599 1599 1600 1600 1601 1601 1601 1602 1602
1566 1569 1571 1573 1575 1578 1579 1581 1582 1584 1586 1587 1589 1590 1590 1591 1592 1592 1593 1594 1594 1594 1595 1595 1594 1594 1594 1594 1595 1595 1596 1596 1597 1597 1597 1598 1598 1599 1599 1599 1600 1600 1600
1564 1566 1570 1571 1573 1576 1578 1580 1581 1583 1585 1586 1588 1589 1589 1590 1591 1591 1592 1593 1593 1593 1593 1593 1594 1594 1594 1593 1593 1594 1594 1595 1595 1595 1595 1596 1596 1596 1597 1597 1597 1598 1598
1562 1565 1567 1569 1571 1574 1576 1577 1579 1582 1584 1585 1586 1587 1588 1590 1589 1590 1590 1591 1591 1592 1592 1592 1592 1592 1593 1593 1592 1592 1592 1593 1593 1593 1594 1594 1594 1594 1594 1595 1595 1595 1595
1559 1562 1564 1567 1569 1572 1574 1575 1577 1579 1581 1583 1584 1586 1586 1586 1587 1588 1588 1589 1589 1589 1590 1590 1590 1590 1590 1591 1591 1590 1591 1591 1591 1591 1592 1592 1592 1592 1592 1592 1592 1592 1592
1556 1559 1561 1564 1566 1569 1571 1573 1575 1577 1579 1581 1582 1583 1585 1585 1585 1585 1586 1586 1586 1587 1588 1588 1589 1588 1588 1589 1589 1588 1589 1589 1589 1589 1589 1589 1589 1589 1589 1589 1589 1589 1589
1552 1555 1558 1561 1563 1566 1568 1570 1572 1573 1576 1578 1580 1581 1582 1583 1584 1584 1584 1584 1585 1585 1585 1585 1586 1586 1586 1586 1586 1586 1586 1587 1587 1587 1587 1587 1587 1587 1587 1587 1587 1586 1586
1547 1550 1554 1557 1559 1562 1564 1566 1568 1570 1572 1574 1576 1578 1579 1580 1581 1582 1582 1582 1582 1583 1583 1583 1583 1583 1583 1583 1583 1583 1583 1583 1584 1584 1584 1584 1584 1584 1584 1584 1584 1584 1583
1542 1545 1549 1552 1555 1558 1560 1562 1564 1566 1568 1570 1572 1574 1576 1577 1578 1579 1579 1579 1579 1580 1580 1580 1580 1580 1580 1580 1580 1579 1580 1580 1580 1581 1581 1581 1581 1581 1581 1581 1581 1581 1580
1538 1541 1544 1547 1551 1554 1556 1558 1561 1562 1564 1566 1568 1570 1572 1573 1575 1576 1577 1577 1576 1577 1576 1577 1577 1577 1577 1577 1577 1576 1577 1576 1577 1577 1577 1577 1577 1577 1577 1577 1577 1577 1577
1533 1536 1540 1543 1546 1549 1552 1554 1557 1558 1560 1562 1564 1565 1567 1569 1570 1572 1573 1573 1574 1573 1573 1573 1574 1574 1573 1573 1573 1573 1573 1573 1573 1573 1573 1573 1573 1573 1573 1573 1573 1573 1573
1528 1531 1535 1538 1541 1544 1547 1550 1552 1554 1556 1558 1560 1561 1563 1565 1566 1567 1568 1569 1570 1571 1570 1570 1570 1571 1570 1571 1569 1569 1569 1569 1569 1569 1569 1569 1569 1569 1569 1569 1569 1568 1568
1523 1526 1530 1533 1536 1540 1543 1545 1548 1550 1552 1554 1555 1557 1558 1560 1562 1563 1565 1565 1566 1567 1567 1567 1567 1566 1565 1566 1566 1566 1566 1565 1565 1564 1564 1564 1564 1564 1564 1564 1564 1563 1563
1518 1522 1525 1529 1532 1535 1538 1541 1543 1546 1548 1550 1551 1553 1554 1556 1557 1559 1560 1561 1562 1563 1563 1563 1563 1563 1562 1562 1561 1561 1562 1562 1561 1560 1559 1559 1559 1559 1558 1558 1558 1558 1557
1513 1517 1520 1524 1527 1530 1533 1536 1539 1541 1543 1545 1547 1549 1550 1552 1553 1554 1555 1557 1558 1558 1558 1559 1559 1559 1559 1558 1558 1557 1557 1556 1557 1556 1555 1554 1553 1553 1553 1552 1552 1552 1551
1510 1513 1516 1520 1523 1526 1529 1531 1534 1537 1539 1541 1543 1544 1546 1548 1549 1550 1551 1552 1553 1554 1554 1555 1555 1555 1554 1554 1553 1553 1553 1552 1551 1552 1551 1549 1548 1547 1546 1546 1546 1545 1545
1507 1510 1513 1516 1519 1522 1525 1527 1530 1533 1535 1537 1539 1540 1542 1543 1544 1546 1548 1549 1549 1550 1550 1550 1550 1550 1550 1550 1550 1549 1549 1548 1547 1546 1545 1544 1543 1542 1541 1539 1539 1538 1538
1504 1507 1510 1513 1516 1518 1520 1523 1526 1529 1531 1533 1534 1536 1538 1539 1540 1541 1542 1544 1545 1545 1546 1546 1546 1546 1546 1546 1545 1545 1544 1543 1542 1542 1540 1539 1539 1537 1536 1536 1533 1532 1531
1502 1505 1508 1510 1513 1515 1517 1520 1523 1525 1527 1529 1531 1532 1534 1535 1536 1537 1538 1539 1540 1541 1541 1541 1541 1541 1542 1541 1541 1540 1539 1538 1537 1537 1535 1534 1533 1531 1531 1529 1527 1526 1525
1502 1504 1507 1509 1511 1513 1516 1518 1520 1522 1524 1526 1527 1529 1530 1531 1533 1533 1534 1535 1536 1536 1536 1536 1536 1536 1536 1536 1535 1535 1534 1533 1531 1531 1530 1528 1527 1526 1525 1523 1521 1519 1518
1502 1504 1506 1509 1511 1513 1515 1517 1518 1520 1521 1523 1524 1526 1527 1528 1529 1530 1530 1531 1531 1532 1532 1532 1532 1531 1531 1531 1530 1530 1529 1528 1527 1526 1525 1523 1521 1520 1518 1517 1515 1513 1511
1502 1505 1507 1508 1510 1512 1514 1515 1517 1518 1519 1520 1522 1523 1524 1525 1526 1526 1527 1527 1528 1528 1529 1528 1527 1527 1526 1526 1525 1524 1524 1524 1522 1521 1519 1518 1516 1515 1513 1512 1510 1508 1506